SCP
0 1 1 1 1 1 1 1 1 0 0 0 0 0 0 0 0 0 0 0 0 0 0 0 0 0 0 0 0 0 0 0 0 0 0 0 0 0
0 0 1 1 1 1 1 1 1 1 1 0 0 0 0 0 0 0 0 0 0 0 0 0 0 0 0 0 0 0 0 0 0 0 0 0 0 0
0 0 0 0 1 1 1 1 1 1 1 1 1 1 0 0 0 0 0 0 0 0 0 0 0 0 0 0 0 0 0 0 0 0 0 0 0 0
0 0 0 0 0 1 1 1 1 1 1 1 1 1 1 0 0 0 0 0 0 0 0 0 0 0 0 0 0 0 0 0 0 0 0 0 0 0
0 0 0 0 0 0 1 1 1 1 1 1 1 1 1 0 0 0 0 0 0 0 0 0 0 0 0 0 0 0 0 0 0 0 0 0 0 0
0 0 0 0 0 0 0 1 1 1 1 1 1 1 1 0 0 0 0 0 0 0 0 0 0 0 0 0 0 0 0 0 0 0 0 0 0 0
0 0 0 0 0 0 0 0 0 1 1 1 1 1 1 0 0 0 0 0 0 0 0 0 0 0 0 0 0 0 0 0 0 0 0 0 0 0
0 0 0 0 0 0 0 0 0 0 1 1 1 1 1 1 0 0 0 0 0 0 0 0 0 0 0 0 0 0 0 0 0 0 0 0 0 0
0 0 0 0 0 0 0 0 0 0 0 0 1 1 1 1 0 0 0 0 0 0 0 0 0 0 0 0 0 0 0 0 0 0 0 0 0 0
0 0 0 0 0 0 0 0 0 0 0 0 0 1 1 1 0 0 0 0 0 0 0 0 0 0 0 0 0 0 0 0 0 0 0 0 0 0
0 0 0 0 0 0 0 0 0 0 0 0 0 0 0 0 0 0 0 0 0 0 0 0 0 0 0 0 0 0 0 0 0 0 0 0 0 0
0 0 0 0 0 0 0 0 0 0 0 0 0 0 0 0 0 0 0 0 0 0 0 0 0 0 0 0 0 0 0 0 0 0 0 0 0 0
0 0 0 0 0 0 0 0 0 0 0 0 0 0 0 0 0 0 0 0 0 0 0 0 0 0 0 0 0 0 0 0 0 0 0 0 0 0
0 0 0 0 0 0 0 0 0 0 0 0 0 0 0 0 0 0 0 0 0 0 0 0 0 0 0 0 0 0 0 0 0 0 0 0 0 0
0 0 0 0 0 0 0 0 0 0 0 0 0 0 0 0 0 0 0 0 0 0 0 0 0 0 0 0 0 0 0 0 0 0 0 0 0 -0
0 0 0 0 0 0 0 0 0 0 0 0 0 0 0 0 0 0 0 0 0 0 0 0 0 0 0 0 0 0 0 0 0 0 0 0 0 0
0 0 0 0 0 0 0 0 0 0 0 0 0 0 0 0 0 0 0 0 0 0 0 0 0 0 0 0 0 0 0 0 0 0 0 0 0 0
0 0 0 0 0 0 0 0 0 0 0 0 0 0 0 0 0 0 0 0 0 0 0 0 0 0 0 0 0 0 0 0 0 0 0 0 0 0
0 0 0 0 0 0 0 0 0 0 0 0 0 0 0 0 0 0 0 0 0 0 0 0 0 0 0 0 0 0 0 0 0 0 0 0 0 0
0 0 0 0 0 0 0 0 0 0 0 0 0 0 0 0 0 0 0 0 0 0 0 0 0 0 0 0 0 0 0 0 0 0 0 0 0 0
0 0 0 0 0 0 0 0 0 0 0 0 0 0 0 0 0 0 0 0 0 0 0 0 0 0 0 0 0 0 0 0 0 0 0 0 0 0
0 0 0 0 0 0 0 0 0 0 0 0 0 0 0 0 0 0 0 0 0 0 0 0 0 0 0 0 0 0 0 0 0 0 0 0 0 0
0 0 0 0 0 0 0 0 0 0 0 0 0 0 0 0 0 0 0 0 0 0 0 0 0 0 0 0 0 0 0 0 0 0 0 0 0 0
Wind_Speed
8 9 9 8 8 8 8 8 8 7 6 6 5 5 3 3 3 2 5 8 7 6 4 3 1 1 2 3 4 6 7 8 9 10 12 14 16 17
7 8 8 7 7 7 8 8 8 8 7 4 4 6 4 4 4 4 6 9 9 7 7 6 4 3 2 1 1 3 4 6 7 8 9 11 13 14
8 8 8 8 7 6 7 7 8 8 8 5 4 6 6 5 5 4 5 4 7 9 8 8 7 6 5 5 3 2 0 2 3 5 6 7 9 11
10 9 9 7 8 7 7 8 8 8 9 9 6 6 6 7 6 5 4 5 6 10 10 10 9 9 8 7 6 5 4 3 2 1 1 2 4 5
10 10 10 9 8 7 8 8 7 8 8 8 7 6 5 7 7 6 6 5 6 8 10 11 11 11 10 9 9 8 8 7 6 5 5 5 4 4
11 11 10 10 10 9 8 8 8 8 8 8 7 6 6 8 7 7 6 5 5 5 7 7 10 12 12 11 11 11 10 10 10 10 10 10 10 10
13 12 12 10 8 7 7 7 8 8 7 8 8 7 7 8 8 7 7 6 5 4 5 5 5 5 7 9 11 12 11 11 12 12 12 13 13 13
13 13 12 12 12 12 11 10 9 9 10 8 8 9 10 10 9 9 9 8 5 5 5 4 4 5 5 7 10 11 12 12 13 14 14 14 14 15
13 12 11 11 13 12 13 15 15 15 13 10 10 10 11 11 12 13 11 10 6 8 7 5 4 6 6 8 11 11 11 12 14 14 15 15 15 15
13 13 12 11 11 10 11 12 13 14 15 13 12 11 10 10 13 12 11 8 8 7 6 5 5 6 6 7 10 11 11 12 13 14 14 15 15 16
14 14 13 13 10 8 11 12 12 11 12 13 13 10 7 8 10 10 11 11 9 6 5 5 7 7 7 7 9 11 11 11 11 12 12 12 13 13
12 12 12 12 9 11 12 12 13 12 11 11 12 10 10 11 14 13 13 12 10 7 7 7 9 8 6 6 7 8 9 10 10 9 7 6 2 5
10 10 10 15 13 12 11 12 10 9 9 10 10 11 11 11 12 11 10 10 11 8 10 9 10 8 7 8 6 7 8 8 8 7 6 7 9 4
10 9 6 13 13 12 11 10 7 7 8 8 8 8 9 10 10 10 9 7 5 7 12 10 9 8 9 10 8 8 7 7 7 7 7 6 7 9
9 4 2 9 10 11 12 10 9 9 9 9 8 8 8 10 10 9 8 7 8 9 10 9 9 9 9 9 10 9 8 8 7 7 7 6 6 6
11 8 8 8 8 8 7 11 10 9 9 8 7 7 7 9 10 10 10 10 9 8 8 8 8 10 8 10 10 10 9 8 8 7 7 6 6 5
9 9 9 10 10 10 9 9 9 10 10 8 7 8 8 9 10 11 11 11 10 11 11 8 9 7 7 9 10 10 9 8 9 8 7 7 6 6
6 8 9 10 10 10 10 10 10 9 9 9 8 8 9 10 10 10 11 11 11 11 11 11 11 10 9 7 5 10 9 8 9 9 7 7 7 7
8 9 9 9 9 9 9 9 9 9 8 8 9 9 10 11 12 12 12 11 11 11 11 11 11 11 12 11 8 5 8 9 9 9 8 6 6 7
9 8 8 8 8 8 8 8 8 8 8 8 9 9 10 11 12 13 12 13 13 12 12 11 11 10 9 9 9 9 7 9 9 9 8 7 4 5
7 7 7 7 7 7 7 7 7 7 8 8 8 10 10 11 12 12 12 15 13 13 13 12 9 7 6 7 9 10 9 4 1 5 8 8 8 8
5 5 5 6 5 6 6 6 7 8 9 8 8 9 10 11 13 14 13 14 12 12 12 10 10 8 7 8 9 11 10 10 5 1 3 4 4 6
4 4 4 5 5 5 6 7 8 8 8 8 8 9 10 11 11 12 13 13 12 12 12 11 10 9 8 8 8 9 13 12 10 10 9 9 7 5
Wind_Direction
257 252 250 252 247 241 236 237 241 238 219 182 188 155 163 126 124 112 92 84 72 69 76 85 101 196 224 229 233 234 235 233 231 228 229 229 228 229
256 258 254 250 248 243 236 234 236 248 250 190 179 158 154 140 125 112 99 103 82 73 71 72 72 73 76 111 212 232 234 232 230 230 231 230 227 228
245 247 250 254 249 244 240 234 230 233 239 227 179 153 161 165 142 134 129 117 96 78 74 71 70 69 66 63 60 55 232 227 228 231 236 233 228 226
243 243 243 246 248 245 242 236 231 230 234 231 198 174 171 164 148 141 128 107 98 87 80 75 71 69 66 64 62 59 58 61 72 89 200 222 219 212
239 239 239 235 242 241 238 239 237 230 232 235 216 180 163 156 145 136 123 114 107 108 96 84 76 72 68 65 64 63 63 64 65 67 69 74 82 96
236 237 238 234 233 237 235 232 235 236 227 230 222 189 168 163 157 150 145 140 123 108 91 92 91 83 74 69 70 70 69 69 68 69 70 72 74 77
234 233 234 233 238 238 246 234 228 229 228 222 216 200 180 172 172 167 156 141 125 137 127 115 112 98 92 81 74 73 73 74 74 73 73 72 72 72
235 234 232 220 218 219 237 248 249 239 234 228 219 211 195 185 176 169 158 157 151 158 136 107 96 88 78 77 73 78 78 79 79 78 77 75 74 74
234 234 237 227 210 221 218 222 235 240 247 250 238 225 204 188 179 176 177 177 156 153 146 117 110 97 88 79 77 77 80 82 83 83 81 80 77 75
233 231 234 241 231 229 233 229 228 224 224 231 241 239 226 197 187 180 169 145 125 144 159 132 135 115 101 94 84 82 83 84 87 88 88 87 83 77
234 232 230 231 221 210 238 245 242 237 223 223 233 239 231 192 178 163 158 153 147 154 172 139 141 128 118 112 100 91 88 88 90 93 96 101 106 102
227 231 226 231 216 194 229 239 240 237 233 210 213 215 208 183 175 179 170 165 155 155 175 155 153 148 131 129 133 133 114 99 95 92 88 78 62 124
228 225 221 193 203 203 226 243 247 251 238 226 211 203 196 187 185 185 182 176 170 160 165 166 167 170 142 143 147 146 142 144 139 124 97 56 30 59
238 237 216 170 185 199 218 238 242 246 242 230 216 201 188 183 181 179 174 174 171 154 161 168 165 168 149 150 148 155 158 157 153 143 132 122 84 64
244 245 150 156 180 204 219 223 223 228 230 225 215 202 187 175 166 159 149 137 125 137 154 168 161 161 160 157 151 157 160 162 161 153 152 155 148 146
235 215 187 188 224 253 215 205 218 223 223 221 212 195 174 166 163 158 151 146 138 140 153 163 161 165 165 155 154 159 166 163 165 164 159 155 159 154
213 218 219 211 211 216 220 219 213 210 212 214 203 186 173 166 163 159 156 153 151 152 154 156 160 168 157 157 160 163 167 163 162 158 171 166 164 164
219 220 220 219 219 216 214 211 210 209 205 199 191 182 173 165 160 159 159 159 156 154 155 156 156 156 155 151 162 167 167 164 158 167 191 180 171 170
222 227 225 221 221 219 216 211 205 200 195 190 183 178 170 163 160 161 161 159 156 156 157 159 164 166 167 161 164 202 174 162 163 174 194 195 182 171
228 228 225 222 218 218 214 207 200 191 188 184 178 175 168 163 162 163 162 160 157 156 160 167 173 177 177 164 157 168 192 175 175 180 186 195 162 111
221 227 229 225 221 218 212 201 195 188 182 177 171 170 165 163 164 163 160 159 160 162 166 169 167 175 166 151 153 160 169 172 159 195 190 190 187 189
221 225 227 224 218 214 203 193 187 179 172 168 165 165 163 162 163 162 159 162 166 164 163 152 155 173 176 174 167 160 164 169 166 344 285 260 227 213
224 226 222 210 200 190 183 178 173 165 160 157 158 159 159 159 160 158 158 163 163 158 152 152 162 176 180 179 175 164 164 174 186 194 212 212 212 207